MPEC 2006-Y22 : 2006 YM
The following Minor Planet Electronic Circular may be linked-to from your own Web pages, but must not otherwise be redistributed electronically.A form allowing access to any MPEC is at the bottom of this page.


M.P.E.C. 2006-Y22 Issued 2006 Dec. 19, 22:47 UT The Minor Planet Electronic Circulars contain information on unusual minor planets and routine data on comets. They are published on behalf of Commission 20 of the International Astronomical Union by the Minor Planet Center, Smithsonian Astrophysical Observatory, Cambridge, MA 02138, U.S.A. Prepared using the Tamkin Foundation Computer Network MPC@CFA.HARVARD.EDU URL http://cfa-www.harvard.edu/iau/mpc.html ISSN 1523-6714 2006 YM Observations: K06Y00M* C2006 12 18.33894 08 02 59.61 +24 29 12.6 17.9 EY022704 K06Y00M C2006 12 18.35192 08 02 54.25 +24 35 41.9 17.8 EY022704 K06Y00M C2006 12 18.36484 08 02 48.87 +24 42 09.1 17.7 EY022704 K06Y00M C2006 12 18.39070 08 02 37.90 +24 55 02.4 18.7 EY022704 K06Y00M C2006 12 19.53303 07 56 27.85 +34 44 36.8 18.1 V EY022408 K06Y00M C2006 12 19.53353 07 56 27.62 +34 44 52.5 17.4 V EY022408 K06Y00M C2006 12 19.53554 07 56 26.67 +34 45 56.9 17.5 V EY022408 K06Y00M C2006 12 19.53755 07 56 25.80 +34 47 01.8 17.7 V EY022408 K06Y00M C2006 12 19.92597 07 53 40.36 +38 13 35.5 17.6 R EY022143 K06Y00M C2006 12 19.92724 07 53 39.70 +38 14 17.2 17.8 R EY022143 K06Y00M C2006 12 19.93030 07 53 38.08 +38 15 58.1 17.9 R EY022143 K06Y00M C2006 12 19.93158 07 53 37.41 +38 16 39.6 17.9 R EY022143 Observer details: 143 Gnosca. Observer S. Sposetti. 0.40-m f/4 reflector + CCD. 408 Nyukasa. Observers H. Kurosaki, A. Nakajima. 0.35-m f/3.6 reflector + CCD. 704 Lincoln Laboratory ETS, New Mexico. Observers M. Bezpalko, D. Torres, R. Kracke, G. Spitz, J. Kistler. Measurers J. Stuart, S. Scruggs. 1.0-m f/2.15 reflector + CCD. Orbital elements: 2006 YM Earth MOID = 0.0234 AU Epoch 2007 Apr. 10.0 TT = JDT 2454200.5 MPC M 321.77046 (2000.0) P Q n 1.15625492 Peri. 171.42835 -0.20618250 +0.95303285 a 0.8990151 Node 86.45493 -0.91043197 -0.10375149 e 0.1218828 Incl. 12.84267 -0.35861178 -0.28454175 P 0.85 H 24.3 G 0.15 U 8 Residuals in seconds of arc 061218 704 0.1+ 0.8+ 061219 408 0.1- 1.4+ 061219 143 0.2+ 0.4- 061218 704 0.2+ 0.4+ 061219 408 0.1- 0.8+ 061219 143 0.2+ 0.3- 061218 704 0.4+ 0.0 061219 408 0.4- 0.6- 061219 143 0.1- 0.5+ 061218 704 0.6- 1.4- 061219 408 0.3+ 1.4- 061219 143 0.1- 0.1+ Ephemeris: 2006 YM a,e,i = 0.90, 0.12, 13 q = 0.7894 Date TT R. A. (2000) Decl. Delta r Elong. Phase V 2006 12 11 08 20.85 -14 12.5 0.0451 1.008 120.5 57.3 19.7 2006 12 12 08 19.66 -11 08.1 0.0419 1.008 123.4 54.6 19.4 2006 12 13 08 18.22 -07 32.5 0.0388 1.008 126.7 51.6 19.2 2006 12 14 08 16.46 -03 19.4 0.0358 1.008 130.3 48.1 18.9 2006 12 15 08 14.33 +01 37.8 0.0331 1.008 134.4 44.3 18.6 2006 12 16 08 11.71 +07 25.5 0.0307 1.008 138.8 40.1 18.3 2006 12 17 08 08.49 +14 07.8 0.0287 1.007 143.2 35.9 18.1 2006 12 18 08 04.47 +21 44.1 0.0271 1.007 147.1 32.1 17.8 2006 12 19 07 59.40 +30 05.7 0.0261 1.007 149.6 29.6 17.7 2006 12 20 07 52.89 +38 54.3 0.0257 1.006 149.8 29.4 17.6 2006 12 21 07 44.31 +47 43.9 0.0259 1.006 147.4 31.8 17.7 2006 12 22 07 32.69 +56 07.7 0.0268 1.005 143.1 36.0 17.9 2006 12 23 07 16.33 +63 43.6 0.0282 1.005 138.0 41.0 18.2 2006 12 24 06 52.13 +70 17.8 0.0301 1.004 132.7 46.0 18.5 2006 12 25 06 14.25 +75 41.2 0.0324 1.004 127.7 50.8 18.7 2006 12 26 05 12.32 +79 42.9 0.0350 1.003 123.2 55.1 19.0 2006 12 27 03 36.44 +82 01.9 0.0379 1.002 119.2 58.9 19.3 2006 12 28 01 45.23 +82 23.1 0.0409 1.002 115.7 62.2 19.6 2006 12 29 00 19.51 +81 18.6 0.0441 1.001 112.6 65.1 19.8 2006 12 30 23 26.01 +79 39.8 0.0474 1.000 109.8 67.7 20.1 2006 12 31 22 52.92 +77 55.0 0.0508 1.000 107.3 69.9 20.3 2007 01 01 22 31.33 +76 14.8 0.0542 0.999 105.1 71.9 20.5 2007 01 02 22 16.39 +74 42.5 0.0577 0.998 103.1 73.6 20.7 2007 01 03 22 05.56 +73 18.7 0.0612 0.997 101.3 75.2 20.9 2007 01 04 21 57.39 +72 03.0 0.0648 0.996 99.7 76.7 21.0 2007 01 05 21 51.03 +70 54.6 0.0684 0.995 98.1 78.0 21.2 2007 01 06 21 45.95 +69 52.6 0.0719 0.994 96.7 79.2 21.3 2007 01 07 21 41.82 +68 56.4 0.0755 0.993 95.4 80.2 21.5 2007 01 08 21 38.40 +68 05.3 0.0791 0.992 94.2 81.3 21.6 2007 01 09 21 35.52 +67 18.6 0.0827 0.991 93.0 82.2 21.7 2007 01 10 21 33.07 +66 35.8 0.0862 0.990 91.9 83.1 21.9 Timothy B. Spahr (C) Copyright 2006 MPC M.P.E.C. 2006-Y22


Enter an MPEC number in one of the following forms:
- 1997-B01 (the full form)
- J97B01 (the packed version of the full form)
- B01 (the abbreviated form)